Location: Newark
(48.6676°N, 6.1917°E)
Time: 15:23:56
(UTC+00:00)

N. Korean satellite - Pass Details

Date: 14 December 2019
Orbit: 454 x 508 km, 97.2° (Epoch: 17 January)

Event Time Altitude Azimuth Distance (km) Brightness Sun altitude
Rises 17:03:14 0° 186° (S) 2,597 10.6 -13.0°
Reaches altitude 10° 17:05:27 10° 195° (SSW) 1,714 9.8 -13.4°
Maximum altitude 17:08:52 35° 263° (W) 826 8.4 -13.9°
Drops below altitude 10° 17:12:17 10° 331° (NNW) 1,708 9.5 -14.4°
Sets 17:14:29 0° 340° (NNW) 2,588 10.3 -14.8°
